Time,TemperatureF,DewpointF,PressureIn,WindDirection,WindDirectionDegrees,WindSpeedMPH,WindSpeedGustMPH,Humidity,HourlyPrecipIn,Conditions,Clouds,dailyrainin,SolarRadiationWatts/m^2,SoftwareType,DateUTC
2013-03-27 00:00:00,34.5,25.0,30.19,WNW,296,8.0,9.0,68,0.00,,SKC,0.00,0.00,VWS V14.01,2013-03-27 05:00:00,
2013-03-27 00:05:00,34.4,25.0,30.19,WNW,289,9.0,9.0,68,0.00,,SKC,0.00,0.00,VWS V14.01,2013-03-27 05:05:00,
2013-03-27 00:10:00,34.5,24.7,30.19,NW,310,8.0,8.0,67,0.00,,SKC,0.00,0.00,VWS V14.01,2013-03-27 05:10:00,
2013-03-27 00:15:00,34.5,24.7,30.19,NW,310,8.0,8.0,67,0.00,,SKC,0.00,0.00,VWS V14.01,2013-03-27 05:15:00,
2013-03-27 00:20:00,34.3,24.9,30.19,NW,304,6.0,6.0,68,0.00,,SKC,0.00,0.00,VWS V14.01,2013-03-27 05:20:00,
2013-03-27 00:25:00,34.3,24.9,30.19,NW,305,5.0,9.0,68,0.00,,SKC,0.00,0.00,VWS V14.01,2013-03-27 05:25:00,
2013-03-27 00:30:00,34.3,24.9,30.19,WNW,299,7.0,9.0,68,0.00,,SKC,0.00,0.00,VWS V14.01,2013-03-27 05:30:00,
2013-03-27 00:35:00,34.2,24.8,30.20,WNW,298,7.0,9.0,68,0.00,,SKC,0.00,0.00,VWS V14.01,2013-03-27 05:35:00,
2013-03-27 00:40:00,34.2,24.8,30.20,WNW,298,8.0,8.0,68,0.00,,SKC,0.00,0.00,VWS V14.01,2013-03-27 05:40:00,
2013-03-27 00:45:00,34.3,24.5,30.19,WNW,301,7.0,10.0,67,0.00,,SKC,0.00,0.00,VWS V14.01,2013-03-27 05:45:00,
2013-03-27 00:50:00,34.3,24.5,30.19,WNW,295,7.0,8.0,67,0.00,,SKC,0.00,0.00,VWS V14.01,2013-03-27 05:50:00,
2013-03-27 00:55:00,34.2,24.4,30.19,WNW,296,7.0,12.0,67,0.00,,SKC,0.00,0.00,VWS V14.01,2013-03-27 05:55:00,
2013-03-27 01:00:00,34.2,24.4,30.19,WNW,295,8.0,10.0,67,0.00,,SKC,0.00,0.00,VWS V14.01,2013-03-27 06:00:00,
2013-03-27 01:05:00,34.2,24.4,30.20,WNW,293,8.0,11.0,67,0.00,,SKC,0.00,0.00,VWS V14.01,2013-03-27 06:05:00,
2013-03-27 01:10:00,34.1,24.3,30.20,NW,304,8.0,9.0,67,0.00,,SKC,0.00,0.00,VWS V14.01,2013-03-27 06:10:00,
2013-03-27 01:15:00,34.2,24.4,30.20,WNW,301,7.0,11.0,67,0.00,,SKC,0.00,0.00,VWS V14.01,2013-03-27 06:15:00,
2013-03-27 01:20:00,34.2,24.4,30.20,WNW,298,9.0,11.0,67,0.00,,SKC,0.00,0.00,VWS V14.01,2013-03-27 06:20:00,
2013-03-27 01:25:00,34.3,24.1,30.20,WNW,290,10.0,13.0,66,0.00,,SKC,0.00,0.00,VWS V14.01,2013-03-27 06:25:00,
2013-03-27 01:30:00,34.2,24.4,30.20,NW,309,6.0,9.0,67,0.00,,SKC,0.00,0.00,VWS V14.01,2013-03-27 06:30:00,
2013-03-27 01:35:00,34.2,24.4,30.20,WNW,296,6.0,10.0,67,0.00,,SKC,0.00,0.00,VWS V14.01,2013-03-27 06:35:00,
2013-03-27 01:40:00,34.1,24.3,30.20,West,279,10.0,10.0,67,0.00,,SKC,0.00,0.00,VWS V14.01,2013-03-27 06:40:00,
2013-03-27 01:45:00,34.2,24.0,30.20,West,280,8.0,12.0,66,0.00,,SKC,0.00,0.00,VWS V14.01,2013-03-27 06:45:00,
2013-03-27 01:50:00,34.1,24.3,30.20,WNW,288,10.0,10.0,67,0.00,,SKC,0.00,0.00,VWS V14.01,2013-03-27 06:50:00,
2013-03-27 01:56:00,34.0,24.2,30.20,WNW,296,8.0,13.0,67,0.00,,SKC,0.00,0.00,VWS V14.01,2013-03-27 06:56:00,
2013-03-27 02:01:00,34.0,24.2,30.20,WNW,297,7.0,8.0,67,0.00,,SKC,0.00,0.00,VWS V14.01,2013-03-27 07:01:00,
2013-03-27 02:06:00,34.0,24.2,30.19,WNW,289,9.0,13.0,67,0.00,,SKC,0.00,0.00,VWS V14.01,2013-03-27 07:06:00,
2013-03-27 02:11:00,34.1,24.3,30.19,West,281,13.0,13.0,67,0.00,,SKC,0.00,0.00,VWS V14.01,2013-03-27 07:11:00,
2013-03-27 02:16:00,34.0,24.2,30.20,WNW,298,10.0,13.0,67,0.00,,SKC,0.00,0.00,VWS V14.01,2013-03-27 07:16:00,
2013-03-27 02:21:00,34.0,24.2,30.20,WNW,288,9.0,11.0,67,0.00,,SKC,0.00,0.00,VWS V14.01,2013-03-27 07:21:00,
2013-03-27 02:26:00,33.9,24.1,30.20,WNW,287,13.0,16.0,67,0.00,,SKC,0.00,0.00,VWS V14.01,2013-03-27 07:26:00,
2013-03-27 02:31:00,34.0,24.2,30.20,WNW,286,11.0,11.0,67,0.00,,SKC,0.00,0.00,VWS V14.01,2013-03-27 07:31:00,
2013-03-27 02:36:00,33.8,24.4,30.20,WNW,298,8.0,12.0,68,0.00,,SKC,0.00,0.00,VWS V14.01,2013-03-27 07:36:00,
2013-03-27 02:41:00,33.8,24.4,30.20,WNW,293,11.0,14.0,68,0.00,,SKC,0.00,0.00,VWS V14.01,2013-03-27 07:41:00,
2013-03-27 02:46:00,33.8,25.7,30.20,WNW,290,10.0,14.0,72,0.00,,SKC,0.00,0.00,VWS V14.01,2013-03-27 07:46:00,
2013-03-27 02:51:00,33.8,24.0,30.20,WNW,291,9.0,12.0,67,0.00,,SKC,0.00,0.00,VWS V14.01,2013-03-27 07:51:00,
2013-03-27 02:56:00,33.7,24.3,30.20,WNW,293,10.0,12.0,68,0.00,,SKC,0.00,0.00,VWS V14.01,2013-03-27 07:56:00,
2013-03-27 03:01:00,33.7,24.3,30.20,WNW,285,9.0,12.0,68,0.00,,SKC,0.00,0.00,VWS V14.01,2013-03-27 08:01:00,
2013-03-27 03:06:00,33.7,24.3,30.20,West,278,10.0,13.0,68,0.00,,SKC,0.00,0.00,VWS V14.01,2013-03-27 08:06:00,
2013-03-27 03:11:00,33.7,24.3,30.20,WNW,288,9.0,13.0,68,0.00,,SKC,0.00,0.00,VWS V14.01,2013-03-27 08:11:00,
2013-03-27 03:16:00,33.7,24.3,30.20,WNW,287,8.0,14.0,68,0.00,,SKC,0.00,0.00,VWS V14.01,2013-03-27 08:16:00,
2013-03-27 03:21:00,33.7,23.9,30.20,WNW,285,9.0,13.0,67,0.00,,SKC,0.00,0.00,VWS V14.01,2013-03-27 08:21:00,
2013-03-27 03:26:00,33.8,24.0,30.20,WNW,285,9.0,13.0,67,0.00,,SKC,0.00,0.00,VWS V14.01,2013-03-27 08:26:00,
2013-03-27 03:31:00,33.8,24.0,30.20,WNW,291,9.0,10.0,67,0.00,,SKC,0.00,0.00,VWS V14.01,2013-03-27 08:31:00,
2013-03-27 03:37:00,33.7,23.9,30.20,WNW,291,8.0,13.0,67,0.00,,SKC,0.00,0.00,VWS V14.01,2013-03-27 08:37:00,
2013-03-27 03:42:00,33.7,23.9,30.20,WNW,300,8.0,11.0,67,0.00,,SKC,0.00,0.00,VWS V14.01,2013-03-27 08:42:00,
2013-03-27 03:47:00,33.7,23.9,30.20,WNW,300,8.0,11.0,67,0.00,,SKC,0.00,0.00,VWS V14.01,2013-03-27 08:47:00,
2013-03-27 03:52:00,33.6,24.2,30.20,WNW,290,8.0,9.0,68,0.00,,SKC,0.00,0.00,VWS V14.01,2013-03-27 08:52:00,
2013-03-27 03:57:00,33.6,23.8,30.20,WNW,296,9.0,12.0,67,0.00,,SKC,0.00,0.00,VWS V14.01,2013-03-27 08:57:00,
2013-03-27 04:02:00,33.6,24.2,30.20,NW,306,8.0,9.0,68,0.00,,SKC,0.00,0.00,VWS V14.01,2013-03-27 09:02:00,
2013-03-27 04:07:00,33.6,24.2,30.20,NW,306,6.0,10.0,68,0.00,,SKC,0.00,0.00,VWS V14.01,2013-03-27 09:07:00,
2013-03-27 04:12:00,33.5,24.1,30.20,NW,306,7.0,10.0,68,0.00,,SKC,0.00,0.00,VWS V14.01,2013-03-27 09:12:00,
2013-03-27 04:17:00,33.4,24.0,30.20,NW,306,9.0,11.0,68,0.00,,SKC,0.00,0.00,VWS V14.01,2013-03-27 09:17:00,
2013-03-27 04:22:00,33.4,24.0,30.20,WNW,302,7.0,9.0,68,0.00,,SKC,0.00,0.00,VWS V14.01,2013-03-27 09:22:00,
2013-03-27 04:27:00,33.4,24.0,30.20,WNW,301,6.0,9.0,68,0.00,,SKC,0.00,0.00,VWS V14.01,2013-03-27 09:27:00,
2013-03-27 04:32:00,33.4,24.3,30.20,NW,320,8.0,9.0,69,0.00,,SKC,0.00,0.00,VWS V14.01,2013-03-27 09:32:00,
2013-03-27 04:37:00,33.3,24.2,30.20,NW,309,10.0,10.0,69,0.00,,SKC,0.00,0.00,VWS V14.01,2013-03-27 09:37:00,
2013-03-27 04:42:00,33.3,24.2,30.20,NW,308,9.0,10.0,69,0.00,,SKC,0.00,0.00,VWS V14.01,2013-03-27 09:42:00,
2013-03-27 04:47:00,33.3,24.2,30.20,WNW,301,9.0,10.0,69,0.00,,SKC,0.00,0.00,VWS V14.01,2013-03-27 09:47:00,
2013-03-27 04:52:00,33.3,24.2,30.20,NW,307,7.0,11.0,69,0.00,,SKC,0.00,0.00,VWS V14.01,2013-03-27 09:52:00,
2013-03-27 04:57:00,33.2,24.1,30.20,WNW,298,8.0,11.0,69,0.00,,SKC,0.00,0.00,VWS V14.01,2013-03-27 09:57:00,
2013-03-27 05:02:00,33.2,24.1,30.20,NW,305,8.0,11.0,69,0.00,,SKC,0.00,0.00,VWS V14.01,2013-03-27 10:02:00,
2013-03-27 05:07:00,33.2,24.1,30.20,WNW,296,9.0,12.0,69,0.00,,SKC,0.00,0.00,VWS V14.01,2013-03-27 10:07:00,
2013-03-27 05:12:00,33.2,24.1,30.20,WNW,294,8.0,10.0,69,0.00,,SKC,0.00,0.00,VWS V14.01,2013-03-27 10:12:00,
2013-03-27 05:17:00,33.1,24.4,30.20,WNW,295,8.0,11.0,70,0.00,,SKC,0.00,0.00,VWS V14.01,2013-03-27 10:17:00,
2013-03-27 05:22:00,33.0,24.3,30.20,WNW,299,7.0,11.0,70,0.00,,SKC,0.00,0.00,VWS V14.01,2013-03-27 10:22:00,
2013-03-27 05:27:00,33.0,24.3,30.20,WNW,296,7.0,11.0,70,0.00,,SKC,0.00,0.00,VWS V14.01,2013-03-27 10:27:00,
2013-03-27 05:32:00,32.9,24.2,30.20,WNW,300,12.0,12.0,70,0.00,,SKC,0.00,0.00,VWS V14.01,2013-03-27 10:32:00,
2013-03-27 05:37:00,32.9,24.2,30.20,NW,307,8.0,13.0,70,0.00,,SKC,0.00,0.00,VWS V14.01,2013-03-27 10:37:00,
2013-03-27 05:42:00,32.9,24.5,30.20,NW,311,6.0,11.0,71,0.00,,SKC,0.00,0.00,VWS V14.01,2013-03-27 10:42:00,
2013-03-27 05:47:00,32.9,24.5,30.20,WNW,294,8.0,11.0,71,0.00,,SKC,0.00,0.00,VWS V14.01,2013-03-27 10:47:00,
2013-03-27 05:52:00,32.9,24.5,30.20,NW,312,9.0,13.0,71,0.00,,SKC,0.00,0.00,VWS V14.01,2013-03-27 10:52:00,
2013-03-27 05:57:00,32.9,24.5,30.20,NW,311,7.0,13.0,71,0.00,,SKC,0.00,0.00,VWS V14.01,2013-03-27 10:57:00,
2013-03-27 06:02:00,32.9,24.5,30.21,WNW,303,6.0,11.0,71,0.00,,SKC,0.00,0.00,VWS V14.01,2013-03-27 11:02:00,
2013-03-27 06:07:00,32.8,24.5,30.21,WNW,302,6.0,11.0,71,0.00,,SKC,0.00,0.00,VWS V14.01,2013-03-27 11:07:00,
2013-03-27 06:12:00,32.7,24.7,30.21,WNW,296,7.0,10.0,72,0.00,,SKC,0.00,0.00,VWS V14.01,2013-03-27 11:12:00,
2013-03-27 06:17:00,32.7,24.7,30.21,WNW,300,9.0,10.0,72,0.00,,SKC,0.00,0.00,VWS V14.01,2013-03-27 11:17:00,
2013-03-27 06:23:00,32.6,24.6,30.21,NW,306,9.0,10.0,72,0.00,,SKC,0.00,0.00,VWS V14.01,2013-03-27 11:23:00,
2013-03-27 06:27:00,32.6,24.6,30.21,NW,315,8.0,12.0,72,0.00,,SKC,0.00,0.00,VWS V14.01,2013-03-27 11:27:00,
2013-03-27 06:33:00,32.5,24.5,30.21,WNW,303,7.0,10.0,72,0.00,,SKC,0.00,0.00,VWS V14.01,2013-03-27 11:33:00,
2013-03-27 06:38:00,32.6,24.6,30.21,NW,306,8.0,10.0,72,0.00,,SKC,0.00,0.00,VWS V14.01,2013-03-27 11:38:00,
2013-03-27 06:43:00,32.6,24.6,30.21,NW,306,8.0,11.0,72,0.00,,SKC,0.00,0.00,VWS V14.01,2013-03-27 11:43:00,
2013-03-27 06:48:00,32.6,24.6,30.21,NW,313,8.0,11.0,72,0.00,,SKC,0.00,0.00,VWS V14.01,2013-03-27 11:48:00,
2013-03-27 06:53:00,32.6,24.6,30.22,NW,309,8.0,11.0,72,0.00,,SKC,0.00,5.00,VWS V14.01,2013-03-27 11:53:00,
2013-03-27 06:58:00,32.6,24.9,30.22,WNW,300,9.0,11.0,73,0.00,,SKC,0.00,7.00,VWS V14.01,2013-03-27 11:58:00,
2013-03-27 07:03:00,32.6,24.9,30.22,NW,313,6.0,10.0,73,0.00,,SKC,0.00,11.00,VWS V14.01,2013-03-27 12:03:00,
2013-03-27 07:08:00,32.5,24.8,30.22,WNW,302,9.0,10.0,73,0.00,,SKC,0.00,14.00,VWS V14.01,2013-03-27 12:08:00,
2013-03-27 07:13:00,32.5,24.8,30.23,NW,319,7.0,10.0,73,0.00,,SKC,0.00,19.00,VWS V14.01,2013-03-27 12:13:00,
2013-03-27 07:18:00,32.5,24.8,30.23,NW,323,6.0,11.0,73,0.00,,SKC,0.00,23.00,VWS V14.01,2013-03-27 12:18:00,
2013-03-27 07:23:00,32.5,24.8,30.23,NW,321,4.0,10.0,73,0.00,,SKC,0.00,28.00,VWS V14.01,2013-03-27 12:23:00,
2013-03-27 07:28:00,32.5,24.8,30.23,WNW,298,5.0,11.0,73,0.00,,SKC,0.00,35.00,VWS V14.01,2013-03-27 12:28:00,
2013-03-27 07:33:00,32.6,24.9,30.23,WNW,301,8.0,10.0,73,0.00,,SKC,0.00,40.00,VWS V14.01,2013-03-27 12:33:00,
2013-03-27 07:38:00,32.6,24.9,30.23,NW,306,8.0,11.0,73,0.00,,SKC,0.00,47.00,VWS V14.01,2013-03-27 12:38:00,
2013-03-27 07:43:00,32.6,24.9,30.24,WNW,297,7.0,10.0,73,0.00,,SKC,0.00,53.00,VWS V14.01,2013-03-27 12:43:00,
2013-03-27 07:48:00,32.7,25.0,30.24,NW,309,9.0,11.0,73,0.00,,SKC,0.00,60.00,VWS V14.01,2013-03-27 12:48:00,
2013-03-27 07:53:00,32.7,25.0,30.24,NW,306,6.0,10.0,73,0.00,,SKC,0.00,69.00,VWS V14.01,2013-03-27 12:53:00,
2013-03-27 07:58:00,32.8,25.1,30.24,NW,321,6.0,11.0,73,0.00,,SKC,0.00,77.00,VWS V14.01,2013-03-27 12:58:00,
2013-03-27 08:03:00,32.9,25.2,30.24,NW,308,10.0,12.0,73,0.00,,SKC,0.00,86.00,VWS V14.01,2013-03-27 13:03:00,
2013-03-27 08:08:00,33.0,25.3,30.24,NW,305,7.0,12.0,73,0.00,,SKC,0.00,95.00,VWS V14.01,2013-03-27 13:08:00,
2013-03-27 08:13:00,33.1,25.4,30.24,NW,304,9.0,11.0,73,0.00,,SKC,0.00,105.00,VWS V14.01,2013-03-27 13:13:00,
2013-03-27 08:18:00,33.2,25.2,30.25,NW,305,7.0,13.0,72,0.00,,SKC,0.00,114.00,VWS V14.01,2013-03-27 13:18:00,
2013-03-27 08:23:00,33.3,25.3,30.25,NW,321,7.0,13.0,72,0.00,,SKC,0.00,118.00,VWS V14.01,2013-03-27 13:23:00,
2013-03-27 08:28:00,33.5,25.5,30.25,WNW,302,8.0,13.0,72,0.00,,SKC,0.00,127.00,VWS V14.01,2013-03-27 13:28:00,
2013-03-27 08:33:00,33.6,25.5,30.25,NW,311,7.0,10.0,72,0.00,,SKC,0.00,137.00,VWS V14.01,2013-03-27 13:33:00,
2013-03-27 08:38:00,33.7,25.6,30.25,NNW,327,6.0,10.0,72,0.00,,SKC,0.00,151.00,VWS V14.01,2013-03-27 13:38:00,
2013-03-27 08:43:00,33.8,25.7,30.25,NW,319,9.0,11.0,72,0.00,,SKC,0.00,165.00,VWS V14.01,2013-03-27 13:43:00,
2013-03-27 08:48:00,34.0,25.6,30.25,NW,313,6.0,11.0,71,0.00,,SKC,0.00,172.00,VWS V14.01,2013-03-27 13:48:00,
2013-03-27 08:53:00,34.3,25.9,30.25,NW,317,6.0,7.0,71,0.00,,SKC,0.00,181.00,VWS V14.01,2013-03-27 13:53:00,
2013-03-27 08:58:00,34.5,25.7,30.25,NW,319,6.0,9.0,70,0.00,,SKC,0.00,195.00,VWS V14.01,2013-03-27 13:58:00,
2013-03-27 09:03:00,34.7,25.6,30.25,NW,309,8.0,9.0,69,0.00,,SKC,0.00,216.00,VWS V14.01,2013-03-27 14:03:00,
2013-03-27 09:08:00,35.0,25.5,30.25,NNW,327,4.0,10.0,68,0.00,,SKC,0.00,234.00,VWS V14.01,2013-03-27 14:08:00,
2013-03-27 09:14:00,35.5,25.6,30.25,NNW,346,5.0,8.0,67,0.00,,SKC,0.00,241.00,VWS V14.01,2013-03-27 14:14:00,
2013-03-27 09:19:00,35.7,25.5,30.25,NNW,339,6.0,9.0,66,0.00,,SKC,0.00,255.00,VWS V14.01,2013-03-27 14:19:00,
2013-03-27 09:24:00,35.9,25.3,30.25,NW,317,5.0,8.0,65,0.00,,SKC,0.00,271.00,VWS V14.01,2013-03-27 14:24:00,
2013-03-27 09:29:00,36.1,25.5,30.25,NNW,333,5.0,8.0,65,0.00,,SKC,0.00,288.00,VWS V14.01,2013-03-27 14:29:00,
2013-03-27 09:34:00,36.3,25.7,30.25,NW,309,6.0,8.0,65,0.00,,SKC,0.00,313.00,VWS V14.01,2013-03-27 14:34:00,
2013-03-27 09:39:00,36.3,25.3,30.25,NW,315,7.0,8.0,64,0.00,,SKC,0.00,336.00,VWS V14.01,2013-03-27 14:39:00,
2013-03-27 09:44:00,36.2,24.8,30.25,NNW,340,7.0,10.0,63,0.00,,SKC,0.00,345.00,VWS V14.01,2013-03-27 14:44:00,
2013-03-27 09:49:00,36.4,25.0,30.25,North,351,5.0,10.0,63,0.00,,SKC,0.00,359.00,VWS V14.01,2013-03-27 14:49:00,
2013-03-27 09:54:00,36.9,25.5,30.25,NW,321,2.0,7.0,63,0.00,,SKC,0.00,369.00,VWS V14.01,2013-03-27 14:54:00,
2013-03-27 09:59:00,37.1,24.1,30.25,NNW,331,4.0,10.0,59,0.00,,SKC,0.00,360.00,VWS V14.01,2013-03-27 14:59:00,
2013-03-27 10:04:00,37.5,24.9,30.25,NNW,327,3.0,7.0,60,0.00,,SKC,0.00,376.00,VWS V14.01,2013-03-27 15:04:00,
2013-03-27 10:09:00,37.6,24.2,30.25,NW,314,4.0,9.0,58,0.00,,SKC,0.00,443.00,VWS V14.01,2013-03-27 15:09:00,
2013-03-27 10:14:00,37.7,23.9,30.25,NW,310,5.0,10.0,57,0.00,,SKC,0.00,424.00,VWS V14.01,2013-03-27 15:14:00,
2013-03-27 10:19:00,37.9,23.2,30.25,NNW,330,11.0,13.0,55,0.00,,SKC,0.00,436.00,VWS V14.01,2013-03-27 15:19:00,
2013-03-27 10:24:00,38.0,23.3,30.25,North,355,5.0,12.0,55,0.00,,SKC,0.00,457.00,VWS V14.01,2013-03-27 15:24:00,
2013-03-27 10:29:00,38.6,23.8,30.25,North,355,8.0,12.0,55,0.00,,SKC,0.00,504.00,VWS V14.01,2013-03-27 15:29:00,
2013-03-27 10:34:00,38.6,23.4,30.25,NW,313,8.0,11.0,54,0.00,,SKC,0.00,496.00,VWS V14.01,2013-03-27 15:34:00,
2013-03-27 10:39:00,38.7,23.5,30.25,NW,322,9.0,13.0,54,0.00,,SKC,0.00,506.00,VWS V14.01,2013-03-27 15:39:00,
2013-03-27 10:44:00,38.6,22.5,30.25,North,360,6.0,13.0,52,0.00,,SKC,0.00,540.00,VWS V14.01,2013-03-27 15:44:00,
2013-03-27 10:49:00,38.6,22.5,30.26,NW,304,9.0,13.0,52,0.00,,SKC,0.00,557.00,VWS V14.01,2013-03-27 15:49:00,
2013-03-27 10:54:00,38.9,23.2,30.25,North,355,6.0,11.0,53,0.00,,SKC,0.00,533.00,VWS V14.01,2013-03-27 15:54:00,
2013-03-27 10:59:00,39.2,22.6,30.26,North,360,17.0,17.0,51,0.00,,SKC,0.00,527.00,VWS V14.01,2013-03-27 15:59:00,
2013-03-27 11:04:00,39.5,22.4,30.26,NW,322,8.0,13.0,50,0.00,,SKC,0.00,508.00,VWS V14.01,2013-03-27 16:04:00,
2013-03-27 11:09:00,39.4,21.4,30.26,NNW,339,11.0,13.0,48,0.00,,SKC,0.00,541.00,VWS V14.01,2013-03-27 16:09:00,
2013-03-27 11:14:00,39.6,21.5,30.26,North,360,7.0,11.0,48,0.00,,SKC,0.00,541.00,VWS V14.01,2013-03-27 16:14:00,
2013-03-27 11:19:00,39.4,20.9,30.26,NW,307,8.0,15.0,47,0.00,,SKC,0.00,580.00,VWS V14.01,2013-03-27 16:19:00,
2013-03-27 11:24:00,39.2,20.7,30.26,NW,326,9.0,14.0,47,0.00,,SKC,0.00,504.00,VWS V14.01,2013-03-27 16:24:00,
2013-03-27 11:29:00,39.7,21.6,30.26,NNW,338,5.0,14.0,48,0.00,,SKC,0.00,468.00,VWS V14.01,2013-03-27 16:29:00,
2013-03-27 11:34:00,40.1,21.5,30.26,NNW,348,10.0,13.0,47,0.00,,SKC,0.00,387.00,VWS V14.01,2013-03-27 16:34:00,
2013-03-27 11:39:00,40.0,21.4,30.26,North,350,9.0,15.0,47,0.00,,SKC,0.00,345.00,VWS V14.01,2013-03-27 16:39:00,
2013-03-27 11:44:00,40.0,20.4,30.26,North,5,9.0,10.0,45,0.00,,SKC,0.00,357.00,VWS V14.01,2013-03-27 16:44:00,
2013-03-27 11:49:00,40.2,21.1,30.26,NW,311,6.0,12.0,46,0.00,,SKC,0.00,413.00,VWS V14.01,2013-03-27 16:49:00,
2013-03-27 11:54:00,39.8,20.7,30.26,NNW,346,8.0,14.0,46,0.00,,SKC,0.00,325.00,VWS V14.01,2013-03-27 16:54:00,
2013-03-27 11:59:00,40.0,20.9,30.26,NNW,334,9.0,14.0,46,0.00,,SKC,0.00,334.00,VWS V14.01,2013-03-27 16:59:00,
2013-03-27 12:04:00,40.1,20.5,30.26,NW,324,8.0,15.0,45,0.00,,SKC,0.00,364.00,VWS V14.01,2013-03-27 17:04:00,
2013-03-27 12:09:00,40.0,20.4,30.26,North,355,11.0,15.0,45,0.00,,SKC,0.00,394.00,VWS V14.01,2013-03-27 17:09:00,
2013-03-27 12:14:00,40.1,20.5,30.26,NNW,327,8.0,14.0,45,0.00,,SKC,0.00,345.00,VWS V14.01,2013-03-27 17:14:00,
2013-03-27 12:19:00,39.6,20.0,30.26,WNW,300,10.0,14.0,45,0.00,,SKC,0.00,346.00,VWS V14.01,2013-03-27 17:19:00,
2013-03-27 12:24:00,39.5,19.9,30.26,NNW,333,10.0,13.0,45,0.00,,SKC,0.00,367.00,VWS V14.01,2013-03-27 17:24:00,
2013-03-27 12:29:00,39.6,20.0,30.26,NW,315,7.0,13.0,45,0.00,,SKC,0.00,396.00,VWS V14.01,2013-03-27 17:29:00,
2013-03-27 12:34:00,39.9,20.3,30.26,NW,324,7.0,15.0,45,0.00,,SKC,0.00,439.00,VWS V14.01,2013-03-27 17:34:00,
2013-03-27 12:39:00,39.4,19.3,30.26,NW,321,13.0,19.0,44,0.00,,SKC,0.00,439.00,VWS V14.01,2013-03-27 17:39:00,
2013-03-27 12:45:00,39.5,19.9,30.26,WNW,291,10.0,15.0,45,0.00,,SKC,0.00,519.00,VWS V14.01,2013-03-27 17:45:00,
2013-03-27 12:50:00,39.9,20.8,30.26,North,351,11.0,17.0,46,0.00,,SKC,0.00,534.00,VWS V14.01,2013-03-27 17:50:00,
2013-03-27 12:55:00,40.2,20.6,30.26,NNW,328,11.0,15.0,45,0.00,,SKC,0.00,717.00,VWS V14.01,2013-03-27 17:55:00,
2013-03-27 13:00:00,40.1,20.5,30.26,NNW,331,9.0,15.0,45,0.00,,SKC,0.00,524.00,VWS V14.01,2013-03-27 18:00:00,
2013-03-27 13:05:00,39.6,20.0,30.26,NNW,342,10.0,15.0,45,0.00,,SKC,0.00,515.00,VWS V14.01,2013-03-27 18:05:00,
2013-03-27 13:10:00,39.8,20.2,30.26,NW,310,13.0,13.0,45,0.00,,SKC,0.00,397.00,VWS V14.01,2013-03-27 18:10:00,
2013-03-27 13:15:00,39.5,19.9,30.26,WNW,297,14.0,17.0,45,0.00,,SKC,0.00,369.00,VWS V14.01,2013-03-27 18:15:00,
2013-03-27 13:20:00,39.4,20.4,30.26,NNW,341,12.0,13.0,46,0.00,,SKC,0.00,376.00,VWS V14.01,2013-03-27 18:20:00,
2013-03-27 13:25:00,39.3,20.3,30.26,NNW,338,7.0,14.0,46,0.00,,SKC,0.00,422.00,VWS V14.01,2013-03-27 18:25:00,
2013-03-27 13:30:00,39.4,20.4,30.26,WNW,292,11.0,14.0,46,0.00,,SKC,0.00,415.00,VWS V14.01,2013-03-27 18:30:00,
2013-03-27 13:35:00,39.7,20.6,30.26,NW,306,12.0,15.0,46,0.00,,SKC,0.00,380.00,VWS V14.01,2013-03-27 18:35:00,
2013-03-27 13:40:00,39.6,21.0,30.26,NW,306,7.0,15.0,47,0.00,,SKC,0.00,366.00,VWS V14.01,2013-03-27 18:40:00,
2013-03-27 13:45:00,39.8,21.7,30.25,North,355,10.0,12.0,48,0.00,,SKC,0.00,387.00,VWS V14.01,2013-03-27 18:45:00,
2013-03-27 13:50:00,39.7,20.6,30.25,West,277,8.0,8.0,46,0.00,,SKC,0.00,380.00,VWS V14.01,2013-03-27 18:50:00,
2013-03-27 13:55:00,39.4,20.4,30.25,NNW,338,12.0,14.0,46,0.00,,SKC,0.00,341.00,VWS V14.01,2013-03-27 18:55:00,
2013-03-27 14:00:00,39.8,21.2,30.25,North,355,8.0,14.0,47,0.00,,SKC,0.00,366.00,VWS V14.01,2013-03-27 19:00:00,
2013-03-27 14:05:00,39.8,21.2,30.25,NNW,348,8.0,13.0,47,0.00,,SKC,0.00,401.00,VWS V14.01,2013-03-27 19:05:00,
2013-03-27 14:10:00,40.1,22.0,30.25,NW,324,11.0,11.0,48,0.00,,SKC,0.00,404.00,VWS V14.01,2013-03-27 19:10:00,
2013-03-27 14:15:00,40.2,22.1,30.25,NNW,344,9.0,15.0,48,0.00,,SKC,0.00,403.00,VWS V14.01,2013-03-27 19:15:00,
2013-03-27 14:20:00,40.0,21.4,30.25,WNW,300,5.0,6.0,47,0.00,,SKC,0.00,376.00,VWS V14.01,2013-03-27 19:20:00,
2013-03-27 14:25:00,39.8,21.7,30.25,NW,324,11.0,12.0,48,0.00,,SKC,0.00,374.00,VWS V14.01,2013-03-27 19:25:00,
2013-03-27 14:30:00,39.8,21.2,30.25,WNW,302,8.0,8.0,47,0.00,,SKC,0.00,350.00,VWS V14.01,2013-03-27 19:30:00,
2013-03-27 14:35:00,39.7,20.1,30.25,NW,316,8.0,12.0,45,0.00,,SKC,0.00,339.00,VWS V14.01,2013-03-27 19:35:00,
2013-03-27 14:40:00,39.8,20.7,30.25,NW,313,9.0,9.0,46,0.00,,SKC,0.00,325.00,VWS V14.01,2013-03-27 19:40:00,
2013-03-27 14:45:00,40.2,21.6,30.25,WNW,283,7.0,11.0,47,0.00,,SKC,0.00,341.00,VWS V14.01,2013-03-27 19:45:00,
2013-03-27 14:50:00,40.1,21.0,30.25,West,273,8.0,8.0,46,0.00,,SKC,0.00,364.00,VWS V14.01,2013-03-27 19:50:00,
2013-03-27 14:55:00,39.9,20.8,30.25,West,279,7.0,13.0,46,0.00,,SKC,0.00,394.00,VWS V14.01,2013-03-27 19:55:00,
2013-03-27 15:00:00,39.9,20.8,30.25,West,273,4.0,8.0,46,0.00,,SKC,0.00,397.00,VWS V14.01,2013-03-27 20:00:00,
2013-03-27 15:05:00,39.7,20.6,30.25,NNW,327,7.0,12.0,46,0.00,,SKC,0.00,367.00,VWS V14.01,2013-03-27 20:05:00,
2013-03-27 15:10:00,39.6,20.5,30.25,WNW,292,13.0,13.0,46,0.00,,SKC,0.00,338.00,VWS V14.01,2013-03-27 20:10:00,
2013-03-27 15:15:00,39.5,20.5,30.25,WNW,294,9.0,13.0,46,0.00,,SKC,0.00,320.00,VWS V14.01,2013-03-27 20:15:00,
2013-03-27 15:20:00,39.7,21.6,30.25,WNW,298,8.0,11.0,48,0.00,,SKC,0.00,294.00,VWS V14.01,2013-03-27 20:20:00,
2013-03-27 15:25:00,39.6,21.0,30.25,NW,305,6.0,15.0,47,0.00,,SKC,0.00,260.00,VWS V14.01,2013-03-27 20:25:00,
2013-03-27 15:30:00,39.6,21.5,30.24,NNW,348,8.0,9.0,48,0.00,,SKC,0.00,239.00,VWS V14.01,2013-03-27 20:30:00,
2013-03-27 15:35:00,39.7,21.6,30.24,NNW,331,7.0,11.0,48,0.00,,SKC,0.00,227.00,VWS V14.01,2013-03-27 20:35:00,
2013-03-27 15:40:00,39.7,21.6,30.24,WNW,300,9.0,11.0,48,0.00,,SKC,0.00,237.00,VWS V14.01,2013-03-27 20:40:00,
2013-03-27 15:45:00,39.4,21.4,30.24,NW,304,11.0,15.0,48,0.00,,SKC,0.00,232.00,VWS V14.01,2013-03-27 20:45:00,
2013-03-27 15:50:00,39.3,21.3,30.24,WNW,302,8.0,8.0,48,0.00,,SKC,0.00,250.00,VWS V14.01,2013-03-27 20:50:00,
2013-03-27 15:55:00,39.6,22.5,30.24,WNW,291,8.0,11.0,50,0.00,,SKC,0.00,257.00,VWS V14.01,2013-03-27 20:55:00,
2013-03-27 16:00:00,39.4,20.9,30.24,NNW,327,9.0,11.0,47,0.00,,SKC,0.00,236.00,VWS V14.01,2013-03-27 21:00:00,
2013-03-27 16:05:00,39.3,21.3,30.24,NW,321,8.0,11.0,48,0.00,,SKC,0.00,236.00,VWS V14.01,2013-03-27 21:05:00,
2013-03-27 16:10:00,39.4,21.4,30.24,NW,309,8.0,10.0,48,0.00,,SKC,0.00,239.00,VWS V14.01,2013-03-27 21:10:00,
2013-03-27 16:15:00,39.3,21.3,30.24,West,261,8.0,14.0,48,0.00,,SKC,0.00,218.00,VWS V14.01,2013-03-27 21:15:00,
2013-03-27 16:20:00,39.3,21.3,30.24,WNW,290,6.0,12.0,48,0.00,,SKC,0.00,204.00,VWS V14.01,2013-03-27 21:20:00,
2013-03-27 16:25:00,39.4,21.8,30.24,WNW,296,6.0,12.0,49,0.00,,SKC,0.00,193.00,VWS V14.01,2013-03-27 21:25:00,
2013-03-27 16:30:00,39.3,22.2,30.24,NW,325,8.0,13.0,50,0.00,,SKC,0.00,176.00,VWS V14.01,2013-03-27 21:30:00,
2013-03-27 16:35:00,39.0,21.5,30.24,WNW,294,10.0,13.0,49,0.00,,SKC,0.00,163.00,VWS V14.01,2013-03-27 21:35:00,
2013-03-27 16:40:00,38.8,20.8,30.24,WNW,297,11.0,12.0,48,0.00,,SKC,0.00,169.00,VWS V14.01,2013-03-27 21:40:00,
2013-03-27 16:45:00,38.9,21.4,30.24,NW,309,9.0,14.0,49,0.00,,SKC,0.00,163.00,VWS V14.01,2013-03-27 21:45:00,
2013-03-27 16:50:00,38.8,21.8,30.24,NW,306,8.0,9.0,50,0.00,,SKC,0.00,130.00,VWS V14.01,2013-03-27 21:50:00,
2013-03-27 16:55:00,38.9,22.8,30.24,NW,306,9.0,12.0,52,0.00,,SKC,0.00,118.00,VWS V14.01,2013-03-27 21:55:00,
2013-03-27 17:00:00,38.8,22.2,30.24,NW,306,8.0,9.0,51,0.00,,SKC,0.00,128.00,VWS V14.01,2013-03-27 22:00:00,
2013-03-27 17:05:00,38.9,22.8,30.24,NW,308,8.0,13.0,52,0.00,,SKC,0.00,125.00,VWS V14.01,2013-03-27 22:05:00,
2013-03-27 17:10:00,38.8,22.2,30.24,NNW,327,8.0,10.0,51,0.00,,SKC,0.00,125.00,VWS V14.01,2013-03-27 22:10:00,
2013-03-27 17:15:00,38.8,21.8,30.24,NW,321,10.0,13.0,50,0.00,,SKC,0.00,128.00,VWS V14.01,2013-03-27 22:15:00,
2013-03-27 17:20:00,38.7,21.7,30.24,WNW,290,9.0,10.0,50,0.00,,SKC,0.00,116.00,VWS V14.01,2013-03-27 22:20:00,
2013-03-27 17:25:00,38.7,21.7,30.24,NW,323,7.0,11.0,50,0.00,,SKC,0.00,105.00,VWS V14.01,2013-03-27 22:25:00,
2013-03-27 17:30:00,38.8,21.8,30.24,NW,317,9.0,11.0,50,0.00,,SKC,0.00,104.00,VWS V14.01,2013-03-27 22:30:00,
2013-03-27 17:35:00,38.6,21.6,30.24,NW,324,16.0,17.0,50,0.00,,SKC,0.00,81.00,VWS V14.01,2013-03-27 22:35:00,
2013-03-27 17:40:00,38.5,21.5,30.24,NNW,330,6.0,11.0,50,0.00,,SKC,0.00,70.00,VWS V14.01,2013-03-27 22:40:00,
2013-03-27 17:45:00,38.8,21.3,30.24,NNW,334,10.0,12.0,49,0.00,,SKC,0.00,264.00,VWS V14.01,2013-03-27 22:45:00,
2013-03-27 17:50:00,39.2,21.7,30.24,WNW,293,7.0,9.0,49,0.00,,SKC,0.00,237.00,VWS V14.01,2013-03-27 22:50:00,
2013-03-27 17:55:00,39.2,21.7,30.24,WNW,291,8.0,13.0,49,0.00,,SKC,0.00,197.00,VWS V14.01,2013-03-27 22:55:00,
2013-03-27 18:00:00,39.1,21.6,30.24,WNW,284,7.0,9.0,49,0.00,,SKC,0.00,218.00,VWS V14.01,2013-03-27 23:00:00,
2013-03-27 18:05:00,39.1,21.6,30.24,WNW,292,8.0,12.0,49,0.00,,SKC,0.00,186.00,VWS V14.01,2013-03-27 23:05:00,
2013-03-27 18:10:00,39.1,21.6,30.24,WNW,300,7.0,12.0,49,0.00,,SKC,0.00,162.00,VWS V14.01,2013-03-27 23:10:00,
2013-03-27 18:15:00,39.2,22.1,30.24,West,271,9.0,12.0,50,0.00,,SKC,0.00,142.00,VWS V14.01,2013-03-27 23:15:00,
2013-03-27 18:20:00,39.1,22.0,30.24,WNW,300,5.0,8.0,50,0.00,,SKC,0.00,121.00,VWS V14.01,2013-03-27 23:20:00,
2013-03-27 18:25:00,39.1,21.6,30.24,NW,312,5.0,9.0,49,0.00,,SKC,0.00,105.00,VWS V14.01,2013-03-27 23:25:00,
2013-03-27 18:30:00,39.0,21.5,30.24,WNW,288,7.0,9.0,49,0.00,,SKC,0.00,90.00,VWS V14.01,2013-03-27 23:30:00,
2013-03-27 18:35:00,38.9,21.4,30.24,NW,313,7.0,9.0,49,0.00,,SKC,0.00,72.00,VWS V14.01,2013-03-27 23:35:00,
2013-03-27 18:40:00,38.8,21.3,30.24,NNW,327,5.0,7.0,49,0.00,,SKC,0.00,54.00,VWS V14.01,2013-03-27 23:40:00,
2013-03-27 18:45:00,38.6,21.1,30.24,NW,304,5.0,8.0,49,0.00,,SKC,0.00,42.00,VWS V14.01,2013-03-27 23:45:00,
2013-03-27 18:50:00,38.6,21.6,30.24,WNW,296,4.0,5.0,50,0.00,,SKC,0.00,33.00,VWS V14.01,2013-03-27 23:50:00,
2013-03-27 18:55:00,38.4,21.4,30.24,WNW,295,6.0,6.0,50,0.00,,SKC,0.00,26.00,VWS V14.01,2013-03-27 23:55:00,
2013-03-27 19:00:00,38.3,21.3,30.24,WNW,298,5.0,5.0,50,0.00,,SKC,0.00,18.00,VWS V14.01,2013-03-28 00:00:00,
2013-03-27 19:05:00,38.0,21.0,30.24,WNW,298,4.0,6.0,50,0.00,,SKC,0.00,11.00,VWS V14.01,2013-03-28 00:05:00,
2013-03-27 19:10:00,37.8,21.3,30.24,WNW,298,2.0,4.0,51,0.00,,SKC,0.00,7.00,VWS V14.01,2013-03-28 00:10:00,
2013-03-27 19:15:00,37.7,21.2,30.24,WNW,298,2.0,6.0,51,0.00,,SKC,0.00,0.00,VWS V14.01,2013-03-28 00:15:00,
2013-03-27 19:21:00,37.5,21.5,30.24,WNW,298,0.0,2.0,52,0.00,,SKC,0.00,0.00,VWS V14.01,2013-03-28 00:21:00,
2013-03-27 19:26:00,37.3,21.3,30.24,WNW,298,1.0,3.0,52,0.00,,SKC,0.00,0.00,VWS V14.01,2013-03-28 00:26:00,
2013-03-27 19:31:00,37.1,21.6,30.24,WNW,298,0.0,0.0,53,0.00,,SKC,0.00,0.00,VWS V14.01,2013-03-28 00:31:00,
2013-03-27 19:36:00,36.9,21.4,30.24,WNW,298,0.0,0.0,53,0.00,,SKC,0.00,0.00,VWS V14.01,2013-03-28 00:36:00,
2013-03-27 19:41:00,36.7,21.6,30.24,WNW,298,0.0,0.0,54,0.00,,SKC,0.00,0.00,VWS V14.01,2013-03-28 00:41:00,
2013-03-27 19:46:00,36.3,22.1,30.24,WNW,298,0.0,0.0,56,0.00,,SKC,0.00,0.00,VWS V14.01,2013-03-28 00:46:00,
2013-03-27 19:51:00,35.8,22.1,30.24,WNW,298,0.0,0.0,57,0.00,,SKC,0.00,0.00,VWS V14.01,2013-03-28 00:51:00,
2013-03-27 19:56:00,35.1,22.2,30.24,WNW,298,0.0,0.0,59,0.00,,SKC,0.00,0.00,VWS V14.01,2013-03-28 00:56:00,
2013-03-27 20:01:00,34.4,22.4,30.24,WNW,298,0.0,0.0,61,0.00,,SKC,0.00,0.00,VWS V14.01,2013-03-28 01:01:00,
2013-03-27 20:06:00,33.9,21.9,30.24,WNW,298,0.0,0.0,61,0.00,,SKC,0.00,0.00,VWS V14.01,2013-03-28 01:06:00,
2013-03-27 20:11:00,33.5,21.9,30.24,WNW,298,0.0,0.0,62,0.00,,SKC,0.00,0.00,VWS V14.01,2013-03-28 01:11:00,
2013-03-27 20:16:00,33.3,21.7,30.24,WNW,298,0.0,0.0,62,0.00,,SKC,0.00,0.00,VWS V14.01,2013-03-28 01:16:00,
2013-03-27 20:21:00,33.1,21.9,30.24,WNW,298,0.0,0.0,63,0.00,,SKC,0.00,0.00,VWS V14.01,2013-03-28 01:21:00,
2013-03-27 20:27:00,33.0,22.2,30.24,WNW,298,0.0,0.0,64,0.00,,SKC,0.00,0.00,VWS V14.01,2013-03-28 01:27:00,
2013-03-27 20:32:00,32.7,22.2,30.24,WNW,298,0.0,0.0,65,0.00,,SKC,0.00,0.00,VWS V14.01,2013-03-28 01:32:00,
2013-03-27 20:37:00,32.4,22.0,30.24,WNW,298,0.0,0.0,65,0.00,,SKC,0.00,0.00,VWS V14.01,2013-03-28 01:37:00,
2013-03-27 20:42:00,32.2,21.8,30.24,WNW,298,0.0,0.0,65,0.00,,SKC,0.00,0.00,VWS V14.01,2013-03-28 01:42:00,
2013-03-27 20:47:00,32.0,21.9,30.24,WNW,298,0.0,0.0,66,0.00,,SKC,0.00,0.00,VWS V14.01,2013-03-28 01:47:00,
2013-03-27 20:52:00,32.0,21.9,30.25,WNW,298,0.0,0.0,66,0.00,,SKC,0.00,0.00,VWS V14.01,2013-03-28 01:52:00,
2013-03-27 20:57:00,32.0,22.3,30.25,WNW,298,0.0,0.0,67,0.00,,SKC,0.00,0.00,VWS V14.01,2013-03-28 01:57:00,
2013-03-27 21:02:00,32.0,21.9,30.25,WNW,298,0.0,0.0,66,0.00,,SKC,0.00,0.00,VWS V14.01,2013-03-28 02:02:00,
2013-03-27 21:07:00,32.0,21.9,30.25,WNW,298,0.0,0.0,66,0.00,,SKC,0.00,0.00,VWS V14.01,2013-03-28 02:07:00,
2013-03-27 21:12:00,32.2,21.8,30.25,WNW,298,0.0,0.0,65,0.00,,SKC,0.00,0.00,VWS V14.01,2013-03-28 02:12:00,
2013-03-27 21:17:00,32.1,21.7,30.25,WNW,298,0.0,0.0,65,0.00,,SKC,0.00,0.00,VWS V14.01,2013-03-28 02:17:00,
2013-03-27 21:22:00,31.7,21.3,30.25,WNW,298,2.0,3.0,65,0.00,,SKC,0.00,0.00,VWS V14.01,2013-03-28 02:22:00,
2013-03-27 21:27:00,31.6,21.6,30.25,WNW,298,0.0,3.0,66,0.00,,SKC,0.00,0.00,VWS V14.01,2013-03-28 02:27:00,
2013-03-27 21:32:00,31.5,21.5,30.25,WNW,298,0.0,2.0,66,0.00,,SKC,0.00,0.00,VWS V14.01,2013-03-28 02:32:00,
2013-03-27 21:37:00,31.5,21.5,30.25,WNW,298,0.0,2.0,66,0.00,,SKC,0.00,0.00,VWS V14.01,2013-03-28 02:37:00,
2013-03-27 21:42:00,31.4,21.4,30.25,WNW,298,0.0,2.0,66,0.00,,SKC,0.00,0.00,VWS V14.01,2013-03-28 02:42:00,
2013-03-27 21:47:00,31.2,21.5,30.25,WNW,298,2.0,3.0,67,0.00,,SKC,0.00,0.00,VWS V14.01,2013-03-28 02:47:00,
2013-03-27 21:52:00,30.9,21.2,30.25,WNW,298,3.0,4.0,67,0.00,,SKC,0.00,0.00,VWS V14.01,2013-03-28 02:52:00,
2013-03-27 21:57:00,30.4,21.5,30.25,WNW,298,2.0,4.0,69,0.00,,SKC,0.00,0.00,VWS V14.01,2013-03-28 02:57:00,
2013-03-27 22:02:00,30.2,21.6,30.25,WNW,298,2.0,3.0,70,0.00,,SKC,0.00,0.00,VWS V14.01,2013-03-28 03:02:00,
2013-03-27 22:07:00,30.1,21.5,30.25,WNW,298,2.0,3.0,70,0.00,,SKC,0.00,0.00,VWS V14.01,2013-03-28 03:07:00,
2013-03-27 22:12:00,30.2,21.6,30.25,WNW,298,3.0,3.0,70,0.00,,SKC,0.00,0.00,VWS V14.01,2013-03-28 03:12:00,
2013-03-27 22:18:00,30.4,21.5,30.25,WNW,298,2.0,3.0,69,0.00,,SKC,0.00,0.00,VWS V14.01,2013-03-28 03:18:00,
2013-03-27 22:23:00,30.2,21.6,30.25,WNW,298,2.0,3.0,70,0.00,,SKC,0.00,0.00,VWS V14.01,2013-03-28 03:23:00,
2013-03-27 22:28:00,30.1,21.5,30.25,WNW,298,3.0,3.0,70,0.00,,SKC,0.00,0.00,VWS V14.01,2013-03-28 03:28:00,
2013-03-27 22:33:00,30.6,21.6,30.25,WNW,298,3.0,4.0,69,0.00,,SKC,0.00,0.00,VWS V14.01,2013-03-28 03:33:00,
2013-03-27 22:38:00,31.3,22.0,30.25,WNW,298,4.0,4.0,68,0.00,,SKC,0.00,0.00,VWS V14.01,2013-03-28 03:38:00,
2013-03-27 22:43:00,31.8,21.8,30.25,WNW,298,4.0,4.0,66,0.00,,SKC,0.00,0.00,VWS V14.01,2013-03-28 03:43:00,
2013-03-27 22:48:00,32.1,21.7,30.25,WNW,298,4.0,5.0,65,0.00,,SKC,0.00,0.00,VWS V14.01,2013-03-28 03:48:00,
2013-03-27 22:53:00,32.1,21.7,30.26,WNW,298,4.0,5.0,65,0.00,,SKC,0.00,0.00,VWS V14.01,2013-03-28 03:53:00,
2013-03-27 22:58:00,32.1,21.7,30.25,WNW,290,5.0,7.0,65,0.00,,SKC,0.00,0.00,VWS V14.01,2013-03-28 03:58:00,
2013-03-27 23:00:00,32.1,21.7,30.25,WNW,290,4.0,7.0,65,0.00,,SKC,0.00,0.00,VWS V14.01,2013-03-28 04:00:00,
2013-03-27 23:05:00,32.1,21.7,30.26,West,281,4.0,6.0,65,0.00,,SKC,0.00,0.00,VWS V14.01,2013-03-28 04:05:00,
2013-03-27 23:10:00,32.0,21.6,30.25,West,281,3.0,3.0,65,0.00,,SKC,0.00,0.00,VWS V14.01,2013-03-28 04:10:00,
2013-03-27 23:15:00,31.7,21.7,30.25,West,281,3.0,4.0,66,0.00,,SKC,0.00,0.00,VWS V14.01,2013-03-28 04:15:00,
2013-03-27 23:20:00,31.7,21.7,30.25,West,281,5.0,5.0,66,0.00,,SKC,0.00,0.00,VWS V14.01,2013-03-28 04:20:00,
2013-03-27 23:25:00,31.9,21.9,30.25,West,278,5.0,6.0,66,0.00,,SKC,0.00,0.00,VWS V14.01,2013-03-28 04:25:00,
2013-03-27 23:30:00,32.0,21.6,30.25,West,275,4.0,5.0,65,0.00,,SKC,0.00,0.00,VWS V14.01,2013-03-28 04:30:00,
2013-03-27 23:35:00,31.8,21.8,30.25,West,275,4.0,5.0,66,0.00,,SKC,0.00,0.00,VWS V14.01,2013-03-28 04:35:00,
2013-03-27 23:40:00,31.8,21.8,30.25,West,275,4.0,4.0,66,0.00,,SKC,0.00,0.00,VWS V14.01,2013-03-28 04:40:00,
2013-03-27 23:45:00,31.7,21.7,30.25,West,275,3.0,6.0,66,0.00,,SKC,0.00,0.00,VWS V14.01,2013-03-28 04:45:00,
2013-03-27 23:50:00,31.7,21.7,30.25,West,275,6.0,6.0,66,0.00,,SKC,0.00,0.00,VWS V14.01,2013-03-28 04:50:00,
2013-03-27 23:55:00,31.7,21.7,30.25,West,272,3.0,7.0,66,0.00,,SKC,0.00,0.00,VWS V14.01,2013-03-28 04:55:00,